Wetterdaten: Montag, 05.10.2015
Datum Zeit Auen-Temp. Temp gefhlt Luftfeuchte Luftdruck Regen Wind Richtung Richtung Taupunkt Windben
05.10.2015 00:00 3,4 C 3,1 C 90 % 1017,0 hPa 0,0 mm 0,0 km/h (0 Bft) S-SO 157 1,9 C 0,0 km/h (0 Bft)
05.10.2015 00:05 3,4 C 3,1 C 90 % 1017,0 hPa 0,0 mm 0,0 km/h (0 Bft) O-SO 112 1,9 C 0,0 km/h (0 Bft)
05.10.2015 00:10 3,2 C 3,0 C 90 % 1017,0 hPa 0,0 mm 0,0 km/h (0 Bft) O-SO 112 1,7 C 0,0 km/h (0 Bft)
05.10.2015 00:15 3,1 C 2,9 C 90 % 1017,0 hPa 0,0 mm 0,0 km/h (0 Bft) S-SO 157 1,6 C 0,0 km/h (0 Bft)
05.10.2015 00:20 3,0 C 2,8 C 90 % 1017,0 hPa 0,0 mm 0,0 km/h (0 Bft) S-SO 157 1,5 C 0,0 km/h (0 Bft)
05.10.2015 00:25 3,3 C 3,0 C 90 % 1017,0 hPa 0,0 mm 0,0 km/h (0 Bft) SO 135 1,8 C 0,0 km/h (0 Bft)
05.10.2015 00:30 3,0 C 2,8 C 90 % 1017,0 hPa 0,0 mm 0,0 km/h (0 Bft) S-SO 157 1,5 C 0,0 km/h (0 Bft)
05.10.2015 00:35 3,5 C 3,1 C 90 % 1016,8 hPa 0,0 mm 0,0 km/h (0 Bft) S-SO 157 2,0 C 0,0 km/h (0 Bft)
05.10.2015 00:40 3,7 C 3,3 C 91 % 1016,8 hPa 0,0 mm 0,0 km/h (0 Bft) S-SO 157 2,4 C 0,0 km/h (0 Bft)
05.10.2015 00:45 3,3 C 3,1 C 90 % 1016,8 hPa 0,0 mm 0,0 km/h (0 Bft) O-SO 112 1,8 C 0,0 km/h (0 Bft)
05.10.2015 00:50 3,1 C 2,9 C 90 % 1016,8 hPa 0,0 mm 0,0 km/h (0 Bft) O-SO 112 1,6 C 0,0 km/h (0 Bft)
05.10.2015 00:55 3,5 C 3,2 C 91 % 1016,8 hPa 0,0 mm 0,0 km/h (0 Bft) O-SO 112 2,2 C 0,0 km/h (0 Bft)
05.10.2015 01:00 3,4 C 3,1 C 91 % 1016,8 hPa 0,0 mm 0,0 km/h (0 Bft) S 180 2,1 C 0,0 km/h (0 Bft)
05.10.2015 01:05 3,7 C 3,3 C 91 % 1016,8 hPa 0,0 mm 0,0 km/h (0 Bft) S 180 2,4 C 0,0 km/h (0 Bft)
05.10.2015 01:10 3,3 C 3,1 C 91 % 1016,8 hPa 0,0 mm 0,0 km/h (0 Bft) S 180 2,0 C 0,0 km/h (0 Bft)
05.10.2015 01:15 2,9 C 2,8 C 92 % 1016,6 hPa 0,0 mm 0,0 km/h (0 Bft) S 180 1,7 C 0,0 km/h (0 Bft)
05.10.2015 01:20 3,0 C 2,8 C 91 % 1016,6 hPa 0,0 mm 0,0 km/h (0 Bft) O-SO 112 1,7 C 0,0 km/h (0 Bft)
05.10.2015 01:25 3,3 C 3,1 C 91 % 1016,6 hPa 0,0 mm 0,0 km/h (0 Bft) O-SO 112 2,0 C 0,0 km/h (0 Bft)
05.10.2015 01:30 3,4 C 3,2 C 87 % 1016,6 hPa 0,0 mm 0,0 km/h (0 Bft) S 180 1,4 C 0,0 km/h (0 Bft)
05.10.2015 01:35 3,5 C 3,2 C 92 % 1016,6 hPa 0,0 mm 0,0 km/h (0 Bft) S-SW 202 2,3 C 0,0 km/h (0 Bft)
05.10.2015 01:40 3,3 C 3,0 C 92 % 1016,6 hPa 0,0 mm 0,0 km/h (0 Bft) S 180 2,1 C 0,0 km/h (0 Bft)
05.10.2015 01:45 3,2 C 2,9 C 92 % 1016,6 hPa 0,0 mm 0,0 km/h (0 Bft) S-SO 157 2,0 C 0,0 km/h (0 Bft)
05.10.2015 01:50 2,9 C 2,7 C 93 % 1016,6 hPa 0,0 mm 0,0 km/h (0 Bft) S 180 1,9 C 0,0 km/h (0 Bft)
05.10.2015 01:55 2,6 C 2,5 C 93 % 1016,4 hPa 0,0 mm 0,0 km/h (0 Bft) S 180 1,6 C 0,0 km/h (0 Bft)
05.10.2015 02:00 2,8 C 2,6 C 93 % 1016,4 hPa 0,0 mm 0,0 km/h (0 Bft) S-SO 157 1,8 C 0,0 km/h (0 Bft)
05.10.2015 02:05 2,6 C 2,4 C 93 % 1016,4 hPa 0,0 mm 0,0 km/h (0 Bft) S-SO 157 1,6 C 0,0 km/h (0 Bft)
05.10.2015 02:10 2,7 C 2,5 C 93 % 1016,4 hPa 0,0 mm 0,0 km/h (0 Bft) O-SO 112 1,7 C 0,0 km/h (0 Bft)
05.10.2015 02:15 3,0 C 2,7 C 87 % 1016,4 hPa 0,0 mm 0,0 km/h (0 Bft) O 90 1,1 C 0,0 km/h (0 Bft)
05.10.2015 02:20 3,1 C 2,8 C 92 % 1016,4 hPa 0,0 mm 0,0 km/h (0 Bft) SO 135 1,9 C 0,0 km/h (0 Bft)
05.10.2015 02:23 3,3 C 2,9 C 92 % 1016,4 hPa 0,0 mm 0,0 km/h (0 Bft) S-SO 157 2,1 C 0,0 km/h (0 Bft)
05.10.2015 02:25 3,3 C 2,9 C 92 % 1016,4 hPa 0,0 mm 0,0 km/h (0 Bft) S-SO 157 2,1 C 0,0 km/h (0 Bft)
05.10.2015 02:30 2,9 C 2,6 C 93 % 1016,4 hPa 0,0 mm 0,0 km/h (0 Bft) S-SO 157 1,9 C 0,0 km/h (0 Bft)
05.10.2015 02:35 2,8 C 2,5 C 93 % 1016,5 hPa 0,0 mm 0,0 km/h (0 Bft) S-SO 157 1,8 C 0,0 km/h (0 Bft)
05.10.2015 02:40 2,8 C 2,5 C 93 % 1016,5 hPa 0,0 mm 0,0 km/h (0 Bft) W-SW 247 1,8 C 0,0 km/h (0 Bft)
05.10.2015 02:45 2,7 C 2,4 C 93 % 1016,5 hPa 0,0 mm 0,0 km/h (0 Bft) W-SW 247 1,7 C 0,0 km/h (0 Bft)
05.10.2015 02:50 2,7 C 2,5 C 93 % 1016,5 hPa 0,0 mm 0,0 km/h (0 Bft) S-SO 157 1,7 C 0,0 km/h (0 Bft)
05.10.2015 02:55 2,7 C 2,5 C 93 % 1016,2 hPa 0,0 mm 0,0 km/h (0 Bft) O 90 1,7 C 0,0 km/h (0 Bft)
05.10.2015 03:00 3,0 C 2,8 C 93 % 1016,2 hPa 0,0 mm 0,0 km/h (0 Bft) O-SO 112 2,0 C 0,0 km/h (0 Bft)
05.10.2015 03:05 3,3 C 3,0 C 93 % 1016,2 hPa 0,0 mm 0,0 km/h (0 Bft) S-SO 157 2,3 C 0,0 km/h (0 Bft)
05.10.2015 03:10 3,4 C 3,2 C 93 % 1016,2 hPa 0,0 mm 0,0 km/h (0 Bft) SO 135 2,4 C 0,0 km/h (0 Bft)
05.10.2015 03:15 3,3 C 3,1 C 93 % 1016,5 hPa 0,0 mm 0,0 km/h (0 Bft) O-SO 112 2,3 C 0,0 km/h (0 Bft)
05.10.2015 03:20 3,3 C 3,2 C 93 % 1016,5 hPa 0,0 mm 0,0 km/h (0 Bft) S 180 2,3 C 0,0 km/h (0 Bft)
05.10.2015 03:25 3,5 C 3,4 C 88 % 1016,5 hPa 0,0 mm 0,0 km/h (0 Bft) O-SO 112 1,7 C 0,0 km/h (0 Bft)
05.10.2015 03:30 3,5 C 3,4 C 93 % 1016,5 hPa 0,0 mm 0,0 km/h (0 Bft) NW 315 2,5 C 0,0 km/h (0 Bft)
05.10.2015 03:35 3,3 C 3,2 C 93 % 1016,4 hPa 0,0 mm 0,0 km/h (0 Bft) W-NW 292 2,3 C 0,0 km/h (0 Bft)
05.10.2015 03:40 3,4 C 3,2 C 93 % 1016,4 hPa 0,0 mm 0,0 km/h (0 Bft) W-NW 292 2,4 C 0,0 km/h (0 Bft)
05.10.2015 03:45 2,9 C 2,8 C 94 % 1016,4 hPa 0,0 mm 0,0 km/h (0 Bft) W-NW 292 2,0 C 0,0 km/h (0 Bft)
05.10.2015 03:50 3,2 C 2,9 C 93 % 1016,4 hPa 0,0 mm 0,0 km/h (0 Bft) W-NW 292 2,2 C 0,0 km/h (0 Bft)
05.10.2015 03:55 3,1 C 2,8 C 93 % 1016,3 hPa 0,0 mm 0,0 km/h (0 Bft) NO 45 2,1 C 0,0 km/h (0 Bft)
05.10.2015 04:00 2,9 C 2,7 C 94 % 1016,3 hPa 0,0 mm 0,0 km/h (0 Bft) NO 45 2,0 C 0,0 km/h (0 Bft)
05.10.2015 04:05 3,3 C 3,0 C 93 % 1016,3 hPa 0,0 mm 1,3 km/h (1 Bft) W-SW 247 2,3 C 7,0 km/h (2 Bft)
05.10.2015 04:10 3,7 C 3,6 C 93 % 1016,3 hPa 0,0 mm 2,3 km/h (1 Bft) W-SW 247 2,7 C 11,1 km/h (2 Bft)
05.10.2015 04:15 3,5 C 3,6 C 93 % 1016,4 hPa 0,0 mm 1,3 km/h (1 Bft) W-SW 247 2,5 C 0,0 km/h (0 Bft)
05.10.2015 04:20 3,1 C 3,5 C 93 % 1016,4 hPa 0,0 mm 0,0 km/h (0 Bft) W-SW 247 2,1 C 0,0 km/h (0 Bft)
05.10.2015 04:25 3,0 C 3,3 C 93 % 1016,4 hPa 0,0 mm 0,0 km/h (0 Bft) W-SW 247 2,0 C 0,0 km/h (0 Bft)
05.10.2015 04:30 3,4 C 3,3 C 93 % 1016,4 hPa 0,0 mm 0,0 km/h (0 Bft) W-SW 247 2,4 C 0,0 km/h (0 Bft)
05.10.2015 04:35 3,5 C 3,3 C 93 % 1016,4 hPa 0,0 mm 0,0 km/h (0 Bft) W-SW 247 2,5 C 0,0 km/h (0 Bft)
05.10.2015 04:40 3,6 C 3,4 C 94 % 1016,4 hPa 0,0 mm 0,0 km/h (0 Bft) S-SO 157 2,7 C 0,0 km/h (0 Bft)
05.10.2015 04:45 3,8 C 3,6 C 94 % 1016,4 hPa 0,0 mm 0,0 km/h (0 Bft) S 180 2,9 C 0,0 km/h (0 Bft)
05.10.2015 04:50 3,4 C 3,3 C 94 % 1016,4 hPa 0,0 mm 0,0 km/h (0 Bft) S-SW 202 2,5 C 0,0 km/h (0 Bft)
05.10.2015 04:55 3,3 C 3,2 C 94 % 1016,4 hPa 0,0 mm 0,0 km/h (0 Bft) S-SW 202 2,4 C 0,0 km/h (0 Bft)
05.10.2015 05:00 3,4 C 3,2 C 94 % 1016,4 hPa 0,0 mm 0,0 km/h (0 Bft) W-SW 247 2,5 C 0,0 km/h (0 Bft)
05.10.2015 05:05 3,3 C 3,1 C 94 % 1016,4 hPa 0,0 mm 0,0 km/h (0 Bft) W-SW 247 2,4 C 0,0 km/h (0 Bft)
05.10.2015 05:10 3,4 C 3,2 C 94 % 1016,4 hPa 0,0 mm 0,0 km/h (0 Bft) W-SW 247 2,5 C 0,0 km/h (0 Bft)
05.10.2015 05:15 3,3 C 3,1 C 94 % 1016,4 hPa 0,0 mm 0,0 km/h (0 Bft) W-SW 247 2,4 C 0,0 km/h (0 Bft)
05.10.2015 05:20 3,2 C 3,0 C 94 % 1016,4 hPa 0,0 mm 0,0 km/h (0 Bft) S 180 2,3 C 0,0 km/h (0 Bft)
05.10.2015 05:25 3,3 C 3,1 C 94 % 1016,4 hPa 0,0 mm 0,0 km/h (0 Bft) W 270 2,4 C 0,0 km/h (0 Bft)
05.10.2015 05:30 3,1 C 2,9 C 94 % 1016,4 hPa 0,0 mm 0,0 km/h (0 Bft) S-SO 157 2,2 C 0,0 km/h (0 Bft)
05.10.2015 05:35 3,2 C 3,0 C 94 % 1016,4 hPa 0,0 mm 0,0 km/h (0 Bft) S-SO 157 2,3 C 0,0 km/h (0 Bft)
05.10.2015 05:40 3,1 C 3,0 C 94 % 1016,4 hPa 0,0 mm 0,0 km/h (0 Bft) W-SW 247 2,2 C 0,0 km/h (0 Bft)
05.10.2015 05:45 3,2 C 3,1 C 94 % 1016,4 hPa 0,0 mm 0,0 km/h (0 Bft) W-SW 247 2,3 C 0,0 km/h (0 Bft)
05.10.2015 05:50 3,3 C 3,1 C 94 % 1016,4 hPa 0,0 mm 0,0 km/h (0 Bft) W-SW 247 2,4 C 0,0 km/h (0 Bft)
05.10.2015 05:55 3,3 C 3,1 C 94 % 1016,4 hPa 0,0 mm 0,0 km/h (0 Bft) W-SW 247 2,4 C 0,0 km/h (0 Bft)
05.10.2015 06:00 3,2 C 3,1 C 94 % 1016,4 hPa 0,0 mm 0,0 km/h (0 Bft) SW 225 2,3 C 0,0 km/h (0 Bft)
05.10.2015 06:05 3,1 C 3,0 C 94 % 1016,4 hPa 0,0 mm 0,0 km/h (0 Bft) W-SW 247 2,2 C 0,0 km/h (0 Bft)
05.10.2015 06:10 3,3 C 3,1 C 94 % 1016,4 hPa 0,0 mm 0,0 km/h (0 Bft) W-SW 247 2,4 C 0,0 km/h (0 Bft)
05.10.2015 06:15 3,3 C 3,1 C 94 % 1016,4 hPa 0,0 mm 0,0 km/h (0 Bft) O 90 2,4 C 0,0 km/h (0 Bft)
05.10.2015 06:20 3,3 C 3,1 C 94 % 1016,4 hPa 0,0 mm 0,0 km/h (0 Bft) O-SO 112 2,4 C 0,0 km/h (0 Bft)
05.10.2015 06:25 3,4 C 3,2 C 94 % 1016,4 hPa 0,0 mm 0,0 km/h (0 Bft) O-SO 112 2,5 C 0,0 km/h (0 Bft)
05.10.2015 06:30 3,4 C 3,3 C 94 % 1016,4 hPa 0,0 mm 0,0 km/h (0 Bft) O-SO 112 2,5 C 0,0 km/h (0 Bft)
05.10.2015 06:35 3,4 C 3,3 C 94 % 1016,3 hPa 0,0 mm 0,0 km/h (0 Bft) O-SO 112 2,5 C 0,0 km/h (0 Bft)
05.10.2015 06:40 3,3 C 3,2 C 94 % 1016,3 hPa 0,0 mm 0,0 km/h (0 Bft) O-SO 112 2,4 C 0,0 km/h (0 Bft)
05.10.2015 06:45 3,3 C 3,2 C 94 % 1016,3 hPa 0,0 mm 0,0 km/h (0 Bft) O-SO 112 2,4 C 0,0 km/h (0 Bft)
05.10.2015 06:50 3,4 C 3,3 C 94 % 1016,3 hPa 0,0 mm 0,0 km/h (0 Bft) O-SO 112 2,5 C 0,0 km/h (0 Bft)
05.10.2015 06:55 3,5 C 3,4 C 94 % 1016,4 hPa 0,0 mm 0,0 km/h (0 Bft) O 90 2,6 C 0,0 km/h (0 Bft)
05.10.2015 07:00 3,6 C 3,4 C 94 % 1016,4 hPa 0,0 mm 0,0 km/h (0 Bft) SO 135 2,7 C 0,0 km/h (0 Bft)
05.10.2015 07:05 3,6 C 3,5 C 94 % 1016,4 hPa 0,0 mm 0,0 km/h (0 Bft) O 90 2,7 C 0,0 km/h (0 Bft)
05.10.2015 07:10 3,7 C 3,6 C 94 % 1016,4 hPa 0,0 mm 0,0 km/h (0 Bft) O-NO 67 2,8 C 0,0 km/h (0 Bft)
05.10.2015 07:15 3,7 C 3,6 C 94 % 1016,6 hPa 0,0 mm 0,0 km/h (0 Bft) O-NO 67 2,8 C 0,0 km/h (0 Bft)
05.10.2015 07:20 3,7 C 3,6 C 94 % 1016,6 hPa 0,0 mm 0,0 km/h (0 Bft) O 90 2,8 C 0,0 km/h (0 Bft)
05.10.2015 07:25 3,7 C 3,6 C 94 % 1016,6 hPa 0,0 mm 0,0 km/h (0 Bft) O 90 2,8 C 0,0 km/h (0 Bft)
05.10.2015 07:30 3,9 C 3,8 C 94 % 1016,6 hPa 0,0 mm 0,0 km/h (0 Bft) SO 135 3,0 C 0,0 km/h (0 Bft)
05.10.2015 07:35 4,0 C 3,9 C 94 % 1016,7 hPa 0,0 mm 0,0 km/h (0 Bft) SO 135 3,1 C 0,0 km/h (0 Bft)
05.10.2015 07:40 4,0 C 3,9 C 94 % 1016,7 hPa 0,0 mm 0,0 km/h (0 Bft) O-NO 67 3,1 C 0,0 km/h (0 Bft)
05.10.2015 07:45 4,0 C 3,9 C 94 % 1016,7 hPa 0,0 mm 0,0 km/h (0 Bft) SO 135 3,1 C 0,0 km/h (0 Bft)
05.10.2015 07:50 4,2 C 4,1 C 94 % 1016,7 hPa 0,0 mm 0,0 km/h (0 Bft) SO 135 3,3 C 0,0 km/h (0 Bft)
05.10.2015 07:55 4,3 C 4,3 C 88 % 1016,7 hPa 0,0 mm 0,3 km/h (0 Bft) W-NW 292 2,5 C 2,6 km/h (1 Bft)
05.10.2015 08:00 4,4 C 4,5 C 88 % 1016,7 hPa 0,0 mm 0,3 km/h (0 Bft) W 270 2,6 C 0,0 km/h (0 Bft)
05.10.2015 08:05 4,4 C 4,5 C 88 % 1016,7 hPa 0,0 mm 0,3 km/h (0 Bft) W 270 2,6 C 0,0 km/h (0 Bft)
05.10.2015 08:10 4,5 C 4,7 C 88 % 1016,7 hPa 0,0 mm 0,0 km/h (0 Bft) W-NW 292 2,7 C 0,0 km/h (0 Bft)
05.10.2015 08:15 4,6 C 4,8 C 88 % 1016,6 hPa 0,0 mm 0,0 km/h (0 Bft) W 270 2,8 C 0,0 km/h (0 Bft)
05.10.2015 08:20 4,7 C 5,1 C 89 % 1016,6 hPa 0,0 mm 0,0 km/h (0 Bft) W 270 3,0 C 0,0 km/h (0 Bft)
05.10.2015 08:24 5,0 C 5,2 C 88 % 1016,6 hPa 0,0 mm 0,0 km/h (0 Bft) W-SW 247 3,2 C 0,0 km/h (0 Bft)
05.10.2015 08:25 5,0 C 5,2 C 88 % 1016,6 hPa 0,0 mm 0,0 km/h (0 Bft) W-SW 247 3,2 C 0,0 km/h (0 Bft)
05.10.2015 08:30 5,3 C 5,5 C 88 % 1016,6 hPa 0,0 mm 0,0 km/h (0 Bft) W-SW 247 3,5 C 0,0 km/h (0 Bft)
05.10.2015 08:35 5,4 C 5,7 C 88 % 1016,6 hPa 0,0 mm 0,0 km/h (0 Bft) W 270 3,6 C 0,0 km/h (0 Bft)
05.10.2015 08:40 5,6 C 6,0 C 88 % 1016,6 hPa 0,0 mm 0,0 km/h (0 Bft) W-SW 247 3,8 C 0,0 km/h (0 Bft)
05.10.2015 08:45 5,7 C 6,1 C 89 % 1016,6 hPa 0,0 mm 0,0 km/h (0 Bft) W 270 4,0 C 0,0 km/h (0 Bft)
05.10.2015 08:50 5,9 C 6,4 C 89 % 1016,6 hPa 0,0 mm 0,0 km/h (0 Bft) W-SW 247 4,2 C 0,0 km/h (0 Bft)
05.10.2015 08:55 6,0 C 6,4 C 93 % 1016,5 hPa 0,0 mm 0,0 km/h (0 Bft) W 270 5,0 C 0,0 km/h (0 Bft)
05.10.2015 09:00 6,0 C 6,3 C 88 % 1016,5 hPa 0,0 mm 0,0 km/h (0 Bft) NW 315 4,2 C 0,0 km/h (0 Bft)
05.10.2015 09:05 5,9 C 6,3 C 95 % 1016,5 hPa 0,0 mm 0,0 km/h (0 Bft) W-SW 247 5,2 C 0,0 km/h (0 Bft)
05.10.2015 09:10 5,7 C 6,1 C 95 % 1016,5 hPa 0,0 mm 0,0 km/h (0 Bft) W-NW 292 5,0 C 0,0 km/h (0 Bft)
05.10.2015 09:15 5,7 C 6,1 C 95 % 1016,2 hPa 0,0 mm 0,0 km/h (0 Bft) W-NW 292 5,0 C 0,0 km/h (0 Bft)
05.10.2015 09:20 5,7 C 7,5 C 95 % 1016,2 hPa 0,0 mm 0,0 km/h (0 Bft) NW 315 5,0 C 0,0 km/h (0 Bft)
05.10.2015 09:25 5,7 C 8,2 C 95 % 1016,2 hPa 0,0 mm 0,0 km/h (0 Bft) W-SW 247 5,0 C 0,0 km/h (0 Bft)
05.10.2015 09:30 5,7 C 10,3 C 95 % 1016,2 hPa 0,0 mm 0,0 km/h (0 Bft) W-SW 247 5,0 C 0,0 km/h (0 Bft)
05.10.2015 09:35 6,1 C 11,0 C 93 % 1016,6 hPa 0,0 mm 0,0 km/h (0 Bft) W 270 5,1 C 0,0 km/h (0 Bft)
05.10.2015 09:40 6,7 C 13,0 C 88 % 1016,6 hPa 0,0 mm 0,0 km/h (0 Bft) SW 225 4,9 C 0,0 km/h (0 Bft)
05.10.2015 09:45 6,9 C 14,9 C 94 % 1016,6 hPa 0,0 mm 0,0 km/h (0 Bft) SW 225 6,0 C 0,0 km/h (0 Bft)
05.10.2015 09:50 7,1 C 16,7 C 94 % 1016,6 hPa 0,0 mm 0,0 km/h (0 Bft) S-SW 202 6,2 C 0,0 km/h (0 Bft)
05.10.2015 09:55 7,5 C 17,3 C 94 % 1016,2 hPa 0,0 mm 0,0 km/h (0 Bft) O-SO 112 6,6 C 0,0 km/h (0 Bft)
05.10.2015 10:00 8,0 C 17,8 C 93 % 1016,2 hPa 0,0 mm 0,0 km/h (0 Bft) O-SO 112 6,9 C 0,0 km/h (0 Bft)
05.10.2015 10:05 8,3 C 17,8 C 93 % 1016,2 hPa 0,0 mm 0,0 km/h (0 Bft) O 90 7,2 C 0,0 km/h (0 Bft)
05.10.2015 10:10 8,6 C 18,3 C 88 % 1016,2 hPa 0,0 mm 0,0 km/h (0 Bft) O 90 6,7 C 0,0 km/h (0 Bft)
05.10.2015 10:15 8,8 C 18,5 C 88 % 1017,7 hPa 0,0 mm 0,0 km/h (0 Bft) SO 135 6,9 C 0,0 km/h (0 Bft)
05.10.2015 10:20 9,3 C 19,0 C 87 % 1017,7 hPa 0,0 mm 0,3 km/h (0 Bft) O-SO 112 7,2 C 0,0 km/h (0 Bft)
05.10.2015 10:25 9,5 C 19,3 C 87 % 1017,7 hPa 0,0 mm 0,3 km/h (0 Bft) O 90 7,4 C 0,0 km/h (0 Bft)
05.10.2015 10:30 9,8 C 20,1 C 92 % 1017,7 hPa 0,0 mm 0,0 km/h (0 Bft) O 90 8,6 C 0,0 km/h (0 Bft)
05.10.2015 10:35 9,9 C 21,2 C 92 % 1018,9 hPa 0,0 mm 0,0 km/h (0 Bft) O-NO 67 8,7 C 0,0 km/h (0 Bft)
05.10.2015 10:40 10,4 C 22,6 C 85 % 1018,9 hPa 0,0 mm 0,0 km/h (0 Bft) O-NO 67 8,0 C 0,0 km/h (0 Bft)
05.10.2015 10:45 11,0 C 23,5 C 85 % 1018,9 hPa 0,0 mm 0,0 km/h (0 Bft) O-NO 67 8,6 C 0,0 km/h (0 Bft)
05.10.2015 10:50 11,6 C 24,6 C 84 % 1018,9 hPa 0,0 mm 0,0 km/h (0 Bft) O-NO 67 9,0 C 0,0 km/h (0 Bft)
05.10.2015 10:55 12,0 C 25,0 C 89 % 1019,5 hPa 0,0 mm 0,0 km/h (0 Bft) O-NO 67 10,2 C 0,0 km/h (0 Bft)
05.10.2015 11:00 13,1 C 25,4 C 85 % 1019,5 hPa 0,0 mm 0,0 km/h (0 Bft) O-NO 67 10,6 C 0,0 km/h (0 Bft)
05.10.2015 11:05 13,7 C 25,8 C 84 % 1019,5 hPa 0,0 mm 0,0 km/h (0 Bft) O-NO 67 11,0 C 0,0 km/h (0 Bft)
05.10.2015 11:10 14,4 C 26,4 C 76 % 1019,5 hPa 0,0 mm 0,0 km/h (0 Bft) O-NO 67 10,2 C 0,0 km/h (0 Bft)
05.10.2015 11:15 15,0 C 26,2 C 73 % 1019,9 hPa 0,0 mm 0,0 km/h (0 Bft) O-NO 67 10,2 C 0,0 km/h (0 Bft)
05.10.2015 11:20 14,8 C 25,6 C 69 % 1019,9 hPa 0,0 mm 0,3 km/h (0 Bft) O-SO 112 9,2 C 0,0 km/h (0 Bft)
05.10.2015 11:25 15,3 C 25,0 C 68 % 1019,9 hPa 0,0 mm 1,8 km/h (1 Bft) NW 315 9,4 C 8,5 km/h (2 Bft)
05.10.2015 11:30 15,8 C 23,9 C 67 % 1019,9 hPa 0,0 mm 3,9 km/h (1 Bft) NW 315 9,7 C 4,1 km/h (1 Bft)
05.10.2015 11:35 15,8 C 22,4 C 66 % 1020,3 hPa 0,0 mm 4,9 km/h (1 Bft) NO 45 9,5 C 9,1 km/h (2 Bft)
05.10.2015 11:40 15,6 C 20,8 C 66 % 1020,3 hPa 0,0 mm 4,4 km/h (1 Bft) W-NW 292 9,3 C 12,7 km/h (3 Bft)
05.10.2015 11:45 15,6 C 20,4 C 65 % 1020,3 hPa 0,0 mm 3,9 km/h (1 Bft) NW 315 9,0 C 3,9 km/h (1 Bft)
05.10.2015 11:50 15,8 C 20,4 C 61 % 1020,3 hPa 0,0 mm 3,9 km/h (1 Bft) N-NO 22 8,3 C 6,5 km/h (2 Bft)
05.10.2015 11:55 16,1 C 20,3 C 60 % 1019,6 hPa 0,0 mm 3,9 km/h (1 Bft) O-NO 67 8,3 C 3,1 km/h (1 Bft)
05.10.2015 12:00 16,2 C 21,0 C 60 % 1019,6 hPa 0,0 mm 4,4 km/h (1 Bft) W-NW 292 8,4 C 7,3 km/h (2 Bft)
05.10.2015 12:05 16,2 C 20,4 C 60 % 1019,6 hPa 0,0 mm 5,4 km/h (1 Bft) N-NW 337 8,4 C 8,8 km/h (2 Bft)
05.10.2015 12:10 16,7 C 20,2 C 60 % 1019,6 hPa 0,0 mm 4,1 km/h (1 Bft) W-NW 292 8,9 C 4,1 km/h (1 Bft)
05.10.2015 12:15 16,8 C 21,1 C 59 % 1019,2 hPa 0,0 mm 3,6 km/h (1 Bft) W-NW 292 8,7 C 0,0 km/h (0 Bft)
05.10.2015 12:20 17,1 C 21,8 C 59 % 1019,2 hPa 0,0 mm 3,9 km/h (1 Bft) W 270 9,0 C 3,4 km/h (1 Bft)
05.10.2015 12:25 17,2 C 21,8 C 58 % 1019,2 hPa 0,0 mm 2,8 km/h (1 Bft) S 180 8,9 C 0,0 km/h (0 Bft)
05.10.2015 12:30 17,4 C 22,5 C 58 % 1019,2 hPa 0,0 mm 1,3 km/h (1 Bft) NW 315 9,1 C 4,4 km/h (1 Bft)
05.10.2015 12:35 17,8 C 23,3 C 58 % 1019,1 hPa 0,0 mm 1,8 km/h (1 Bft) NW 315 9,4 C 0,0 km/h (0 Bft)
05.10.2015 12:40 18,0 C 23,8 C 58 % 1019,1 hPa 0,0 mm 2,3 km/h (1 Bft) O-NO 67 9,6 C 0,0 km/h (0 Bft)
05.10.2015 12:45 18,1 C 23,6 C 57 % 1019,1 hPa 0,0 mm 1,8 km/h (1 Bft) N-NO 22 9,4 C 6,5 km/h (2 Bft)
05.10.2015 12:50 17,6 C 22,8 C 56 % 1019,1 hPa 0,0 mm 2,1 km/h (1 Bft) O-SO 112 8,7 C 0,0 km/h (0 Bft)
05.10.2015 12:55 18,3 C 23,5 C 57 % 1019,2 hPa 0,0 mm 2,1 km/h (1 Bft) N-NW 337 9,6 C 6,7 km/h (2 Bft)
05.10.2015 13:00 18,5 C 22,3 C 55 % 1019,2 hPa 0,0 mm 3,9 km/h (1 Bft) NW 315 9,3 C 7,5 km/h (2 Bft)
05.10.2015 13:05 18,5 C 21,7 C 55 % 1019,2 hPa 0,0 mm 4,9 km/h (1 Bft) N-NW 337 9,3 C 6,2 km/h (2 Bft)
05.10.2015 13:10 17,7 C 21,2 C 55 % 1019,2 hPa 0,0 mm 2,3 km/h (1 Bft) O-SO 112 8,5 C 2,6 km/h (1 Bft)
05.10.2015 13:15 17,3 C 21,0 C 56 % 1019,4 hPa 0,0 mm 1,0 km/h (0 Bft) O-SO 112 8,4 C 0,0 km/h (0 Bft)
05.10.2015 13:20 17,0 C 20,7 C 56 % 1019,4 hPa 0,0 mm 0,3 km/h (0 Bft) N-NO 22 8,2 C 0,0 km/h (0 Bft)
05.10.2015 13:25 17,0 C 20,2 C 56 % 1019,4 hPa 0,0 mm 0,3 km/h (0 Bft) O-NO 67 8,2 C 0,0 km/h (0 Bft)
05.10.2015 13:30 16,7 C 20,0 C 57 % 1019,4 hPa 0,0 mm 0,3 km/h (0 Bft) O 90 8,1 C 0,0 km/h (0 Bft)
05.10.2015 13:35 16,7 C 20,2 C 57 % 1018,5 hPa 0,0 mm 0,8 km/h (0 Bft) O-NO 67 8,1 C 5,4 km/h (1 Bft)
05.10.2015 13:40 16,8 C 20,2 C 57 % 1018,5 hPa 0,0 mm 1,6 km/h (1 Bft) N-NO 22 8,2 C 0,0 km/h (0 Bft)
05.10.2015 13:45 16,9 C 20,4 C 57 % 1018,5 hPa 0,0 mm 1,3 km/h (1 Bft) O-SO 112 8,3 C 3,4 km/h (1 Bft)
05.10.2015 13:50 17,7 C 21,4 C 56 % 1017,8 hPa 0,0 mm 4,4 km/h (1 Bft) NO 45 8,8 C 10,6 km/h (2 Bft)
05.10.2015 13:55 17,9 C 22,3 C 56 % 1017,8 hPa 0,0 mm 7,3 km/h (2 Bft) O-SO 112 9,0 C 5,7 km/h (1 Bft)
05.10.2015 14:00 17,9 C 22,7 C 56 % 1017,8 hPa 0,0 mm 6,7 km/h (2 Bft) SO 135 9,0 C 14,0 km/h (3 Bft)
05.10.2015 14:05 17,8 C 22,9 C 55 % 1017,8 hPa 0,0 mm 4,1 km/h (1 Bft) O-NO 67 8,6 C 8,0 km/h (2 Bft)
05.10.2015 14:10 17,8 C 22,9 C 55 % 1017,8 hPa 0,0 mm 4,1 km/h (1 Bft) O-NO 67 8,6 C 8,0 km/h (2 Bft)
05.10.2015 14:15 18,0 C 23,1 C 55 % 1017,4 hPa 0,0 mm 5,4 km/h (1 Bft) N-NO 22 8,8 C 7,3 km/h (2 Bft)
05.10.2015 14:20 18,1 C 23,1 C 55 % 1017,4 hPa 0,0 mm 8,0 km/h (2 Bft) O-NO 67 8,9 C 19,4 km/h (3 Bft)
05.10.2015 14:25 18,1 C 23,3 C 55 % 1017,4 hPa 0,0 mm 5,2 km/h (1 Bft) O-NO 67 8,9 C 8,8 km/h (2 Bft)
05.10.2015 14:30 18,1 C 23,3 C 55 % 1017,4 hPa 0,0 mm 5,2 km/h (1 Bft) O-NO 67 8,9 C 8,8 km/h (2 Bft)
05.10.2015 14:35 18,1 C 22,8 C 55 % 1017,2 hPa 0,0 mm 6,7 km/h (2 Bft) SO 135 8,9 C 10,6 km/h (2 Bft)
05.10.2015 14:40 18,3 C 23,1 C 55 % 1017,2 hPa 0,0 mm 7,3 km/h (2 Bft) NO 45 9,1 C 7,8 km/h (2 Bft)
05.10.2015 14:45 18,2 C 23,2 C 56 % 1017,2 hPa 0,0 mm 4,9 km/h (1 Bft) SO 135 9,3 C 3,6 km/h (1 Bft)
05.10.2015 14:50 18,2 C 23,1 C 55 % 1017,2 hPa 0,0 mm 6,2 km/h (2 Bft) SO 135 9,0 C 7,5 km/h (2 Bft)
05.10.2015 14:55 18,5 C 23,3 C 56 % 1017,1 hPa 0,0 mm 5,2 km/h (1 Bft) O-NO 67 9,6 C 9,8 km/h (2 Bft)
05.10.2015 15:00 18,8 C 23,5 C 55 % 1017,1 hPa 0,0 mm 4,4 km/h (1 Bft) O-SO 112 9,6 C 4,7 km/h (1 Bft)
05.10.2015 15:05 18,8 C 23,5 C 54 % 1017,1 hPa 0,0 mm 5,2 km/h (1 Bft) O 90 9,3 C 7,0 km/h (2 Bft)
05.10.2015 15:10 18,8 C 23,3 C 54 % 1017,1 hPa 0,0 mm 5,2 km/h (1 Bft) NO 45 9,3 C 11,4 km/h (2 Bft)
05.10.2015 15:15 18,7 C 23,1 C 54 % 1016,8 hPa 0,0 mm 5,4 km/h (1 Bft) N-NO 22 9,2 C 15,5 km/h (3 Bft)
05.10.2015 15:20 18,7 C 22,9 C 53 % 1016,8 hPa 0,0 mm 6,7 km/h (2 Bft) N-NW 337 8,9 C 14,8 km/h (3 Bft)
05.10.2015 15:25 18,8 C 23,0 C 54 % 1016,8 hPa 0,0 mm 6,0 km/h (2 Bft) SO 135 9,3 C 10,4 km/h (2 Bft)
05.10.2015 15:30 19,1 C 23,8 C 53 % 1016,8 hPa 0,0 mm 3,4 km/h (1 Bft) O-SO 112 9,3 C 2,8 km/h (1 Bft)
05.10.2015 15:35 19,0 C 23,8 C 53 % 1016,8 hPa 0,0 mm 3,4 km/h (1 Bft) S-SO 157 9,2 C 0,0 km/h (0 Bft)
05.10.2015 15:40 18,7 C 23,5 C 53 % 1016,8 hPa 0,0 mm 4,1 km/h (1 Bft) O-NO 67 8,9 C 3,1 km/h (1 Bft)
05.10.2015 15:45 18,6 C 23,5 C 53 % 1016,8 hPa 0,0 mm 3,6 km/h (1 Bft) O-NO 67 8,8 C 2,6 km/h (1 Bft)
05.10.2015 15:50 18,8 C 23,4 C 53 % 1016,8 hPa 0,0 mm 3,9 km/h (1 Bft) SO 135 9,0 C 4,4 km/h (1 Bft)
05.10.2015 15:55 18,6 C 22,7 C 53 % 1016,2 hPa 0,0 mm 4,1 km/h (1 Bft) N-NO 22 8,8 C 6,2 km/h (2 Bft)
05.10.2015 16:00 18,4 C 22,3 C 53 % 1016,2 hPa 0,0 mm 4,9 km/h (1 Bft) O-SO 112 8,6 C 4,9 km/h (1 Bft)
05.10.2015 16:05 18,2 C 22,2 C 53 % 1016,2 hPa 0,0 mm 5,2 km/h (1 Bft) O-NO 67 8,5 C 7,3 km/h (2 Bft)
05.10.2015 16:10 18,1 C 21,8 C 53 % 1016,2 hPa 0,0 mm 4,1 km/h (1 Bft) SO 135 8,4 C 3,4 km/h (1 Bft)
05.10.2015 16:15 18,0 C 21,5 C 53 % 1015,4 hPa 0,0 mm 3,6 km/h (1 Bft) O-SO 112 8,3 C 3,6 km/h (1 Bft)
05.10.2015 16:20 17,7 C 21,8 C 54 % 1015,4 hPa 0,0 mm 2,1 km/h (1 Bft) NO 45 8,3 C 0,0 km/h (0 Bft)
05.10.2015 16:25 17,4 C 22,1 C 54 % 1015,4 hPa 0,0 mm 1,3 km/h (1 Bft) N-NW 337 8,0 C 0,0 km/h (0 Bft)
05.10.2015 16:30 16,9 C 22,3 C 55 % 1015,4 hPa 0,0 mm 1,3 km/h (1 Bft) NO 45 7,8 C 7,0 km/h (2 Bft)
05.10.2015 16:35 16,8 C 21,3 C 56 % 1015,4 hPa 0,0 mm 1,6 km/h (1 Bft) O-SO 112 8,0 C 0,0 km/h (0 Bft)
05.10.2015 16:40 16,1 C 19,8 C 57 % 1015,4 hPa 0,0 mm 1,8 km/h (1 Bft) O-NO 67 7,6 C 0,0 km/h (0 Bft)
05.10.2015 16:45 15,9 C 18,5 C 57 % 1015,4 hPa 0,0 mm 1,3 km/h (1 Bft) SO 135 7,4 C 0,0 km/h (0 Bft)
05.10.2015 16:50 15,9 C 17,6 C 58 % 1015,4 hPa 0,0 mm 0,5 km/h (0 Bft) S-SO 157 7,6 C 0,0 km/h (0 Bft)
05.10.2015 16:55 16,0 C 17,7 C 58 % 1014,9 hPa 0,0 mm 0,5 km/h (0 Bft) NO 45 7,7 C 0,0 km/h (0 Bft)
05.10.2015 17:00 15,9 C 17,3 C 59 % 1014,9 hPa 0,0 mm 0,5 km/h (0 Bft) S 180 7,9 C 0,0 km/h (0 Bft)
05.10.2015 17:05 15,9 C 17,1 C 59 % 1014,9 hPa 0,0 mm 0,0 km/h (0 Bft) O-NO 67 7,9 C 0,0 km/h (0 Bft)
05.10.2015 17:10 15,8 C 16,8 C 59 % 1014,9 hPa 0,0 mm 0,5 km/h (0 Bft) S-SO 157 7,8 C 0,0 km/h (0 Bft)
05.10.2015 17:15 15,6 C 16,5 C 59 % 1014,9 hPa 0,0 mm 0,5 km/h (0 Bft) SO 135 7,6 C 0,0 km/h (0 Bft)
05.10.2015 17:20 15,4 C 16,1 C 59 % 1014,9 hPa 0,0 mm 0,3 km/h (0 Bft) S-SO 157 7,4 C 0,0 km/h (0 Bft)
05.10.2015 17:25 15,2 C 15,9 C 60 % 1014,9 hPa 0,0 mm 0,5 km/h (0 Bft) SO 135 7,5 C 3,4 km/h (1 Bft)
05.10.2015 17:30 15,1 C 15,7 C 61 % 1014,9 hPa 0,0 mm 0,5 km/h (0 Bft) S-SO 157 7,6 C 0,0 km/h (0 Bft)
05.10.2015 17:35 14,8 C 15,5 C 62 % 1014,5 hPa 0,0 mm 0,5 km/h (0 Bft) S 180 7,6 C 0,0 km/h (0 Bft)
05.10.2015 17:40 14,5 C 15,3 C 64 % 1014,5 hPa 0,0 mm 0,3 km/h (0 Bft) SO 135 7,8 C 0,0 km/h (0 Bft)
05.10.2015 17:45 14,4 C 15,1 C 65 % 1014,5 hPa 0,0 mm 0,5 km/h (0 Bft) S 180 7,9 C 4,1 km/h (1 Bft)
05.10.2015 17:50 14,2 C 14,9 C 65 % 1014,5 hPa 0,0 mm 0,8 km/h (0 Bft) S-SO 157 7,7 C 0,0 km/h (0 Bft)
05.10.2015 17:55 14,2 C 14,8 C 66 % 1014,1 hPa 0,0 mm 0,8 km/h (0 Bft) S 180 7,9 C 0,0 km/h (0 Bft)
05.10.2015 18:00 14,1 C 14,6 C 66 % 1014,1 hPa 0,0 mm 0,5 km/h (0 Bft) S 180 7,8 C 2,6 km/h (1 Bft)
05.10.2015 18:05 14,1 C 14,5 C 66 % 1014,1 hPa 0,0 mm 1,0 km/h (0 Bft) S 180 7,8 C 0,0 km/h (0 Bft)
05.10.2015 18:10 13,9 C 14,4 C 66 % 1014,1 hPa 0,0 mm 1,0 km/h (0 Bft) SW 225 7,7 C 0,0 km/h (0 Bft)
05.10.2015 18:15 13,8 C 14,2 C 67 % 1013,9 hPa 0,0 mm 0,0 km/h (0 Bft) S 180 7,8 C 0,0 km/h (0 Bft)
05.10.2015 18:20 13,7 C 13,9 C 67 % 1013,9 hPa 0,0 mm 0,0 km/h (0 Bft) S 180 7,7 C 0,0 km/h (0 Bft)
05.10.2015 18:25 13,6 C 13,8 C 68 % 1013,9 hPa 0,0 mm 0,3 km/h (0 Bft) S-SW 202 7,8 C 0,0 km/h (0 Bft)
05.10.2015 18:30 13,2 C 13,5 C 68 % 1013,9 hPa 0,0 mm 0,3 km/h (0 Bft) S-SO 157 7,4 C 0,0 km/h (0 Bft)
05.10.2015 18:35 13,1 C 13,3 C 68 % 1014,0 hPa 0,0 mm 0,0 km/h (0 Bft) S-SO 157 7,3 C 0,0 km/h (0 Bft)
05.10.2015 18:40 12,6 C 12,9 C 69 % 1014,0 hPa 0,0 mm 0,0 km/h (0 Bft) S-SO 157 7,1 C 0,0 km/h (0 Bft)
05.10.2015 18:45 12,6 C 12,6 C 69 % 1014,0 hPa 0,0 mm 0,0 km/h (0 Bft) S 180 7,1 C 0,0 km/h (0 Bft)
05.10.2015 18:50 12,2 C 12,2 C 69 % 1014,0 hPa 0,0 mm 0,0 km/h (0 Bft) S-SW 202 6,7 C 0,0 km/h (0 Bft)
05.10.2015 18:55 12,0 C 12,0 C 70 % 1013,8 hPa 0,0 mm 0,0 km/h (0 Bft) S-SW 202 6,7 C 0,0 km/h (0 Bft)
05.10.2015 19:00 11,8 C 11,7 C 71 % 1013,8 hPa 0,0 mm 0,0 km/h (0 Bft) S-SO 157 6,7 C 0,0 km/h (0 Bft)
05.10.2015 19:05 11,4 C 11,4 C 71 % 1013,8 hPa 0,0 mm 0,0 km/h (0 Bft) S-SO 157 6,3 C 0,0 km/h (0 Bft)
05.10.2015 19:10 11,3 C 11,2 C 71 % 1013,8 hPa 0,0 mm 0,0 km/h (0 Bft) S-SO 157 6,2 C 0,0 km/h (0 Bft)
05.10.2015 19:15 11,0 C 10,9 C 72 % 1013,8 hPa 0,0 mm 0,0 km/h (0 Bft) S-SO 157 6,2 C 0,0 km/h (0 Bft)
05.10.2015 19:20 11,0 C 11,2 C 73 % 1013,8 hPa 0,0 mm 0,0 km/h (0 Bft) SO 135 6,4 C 0,0 km/h (0 Bft)
05.10.2015 19:25 10,8 C 10,9 C 74 % 1013,8 hPa 0,0 mm 0,0 km/h (0 Bft) SO 135 6,4 C 0,0 km/h (0 Bft)
05.10.2015 19:30 11,1 C 11,3 C 75 % 1013,8 hPa 0,0 mm 0,3 km/h (0 Bft) S-SO 157 6,8 C 0,0 km/h (0 Bft)
05.10.2015 19:35 11,4 C 11,2 C 75 % 1013,7 hPa 0,0 mm 0,3 km/h (0 Bft) S 180 7,1 C 0,0 km/h (0 Bft)
05.10.2015 19:40 11,3 C 11,3 C 74 % 1013,7 hPa 0,0 mm 0,3 km/h (0 Bft) SO 135 6,8 C 0,0 km/h (0 Bft)
05.10.2015 19:45 10,9 C 10,8 C 74 % 1013,7 hPa 0,0 mm 0,3 km/h (0 Bft) SO 135 6,5 C 0,0 km/h (0 Bft)
05.10.2015 19:50 10,0 C 10,1 C 74 % 1013,7 hPa 0,0 mm 0,0 km/h (0 Bft) SO 135 5,6 C 0,0 km/h (0 Bft)
05.10.2015 19:55 9,8 C 9,8 C 75 % 1013,6 hPa 0,0 mm 0,0 km/h (0 Bft) S 180 5,6 C 0,0 km/h (0 Bft)
05.10.2015 20:00 9,9 C 9,8 C 76 % 1013,6 hPa 0,0 mm 0,0 km/h (0 Bft) S-SO 157 5,9 C 0,0 km/h (0 Bft)
05.10.2015 20:05 9,7 C 9,6 C 76 % 1013,6 hPa 0,0 mm 0,0 km/h (0 Bft) S-SO 157 5,7 C 0,0 km/h (0 Bft)
05.10.2015 20:10 9,5 C 9,4 C 76 % 1013,6 hPa 0,0 mm 0,0 km/h (0 Bft) O-NO 67 5,5 C 0,0 km/h (0 Bft)
05.10.2015 20:15 9,5 C 9,4 C 77 % 1013,3 hPa 0,0 mm 0,0 km/h (0 Bft) O-NO 67 5,7 C 0,0 km/h (0 Bft)
05.10.2015 20:20 9,6 C 9,5 C 78 % 1013,3 hPa 0,0 mm 0,0 km/h (0 Bft) O-NO 67 6,0 C 0,0 km/h (0 Bft)
05.10.2015 20:25 9,7 C 9,6 C 78 % 1013,3 hPa 0,0 mm 0,0 km/h (0 Bft) N-NO 22 6,1 C 0,0 km/h (0 Bft)
05.10.2015 20:26 9,7 C 9,6 C 78 % 1013,3 hPa 0,0 mm 0,0 km/h (0 Bft) N-NO 22 6,1 C 0,0 km/h (0 Bft)
05.10.2015 20:30 9,7 C 9,6 C 78 % 1013,3 hPa 0,0 mm 0,0 km/h (0 Bft) N-NO 22 6,1 C 0,0 km/h (0 Bft)
05.10.2015 20:35 9,7 C 9,6 C 78 % 1013,0 hPa 0,0 mm 0,0 km/h (0 Bft) N-NO 22 6,1 C 0,0 km/h (0 Bft)
05.10.2015 20:40 9,8 C 9,7 C 79 % 1013,0 hPa 0,0 mm 0,0 km/h (0 Bft) N-NO 22 6,3 C 0,0 km/h (0 Bft)
05.10.2015 20:45 9,9 C 9,7 C 79 % 1013,0 hPa 0,0 mm 0,0 km/h (0 Bft) N-NO 22 6,4 C 0,0 km/h (0 Bft)
05.10.2015 20:50 9,9 C 9,7 C 79 % 1013,0 hPa 0,0 mm 0,0 km/h (0 Bft) O-NO 67 6,4 C 0,0 km/h (0 Bft)
05.10.2015 20:55 10,1 C 9,9 C 79 % 1013,0 hPa 0,0 mm 0,0 km/h (0 Bft) O-NO 67 6,6 C 0,0 km/h (0 Bft)
05.10.2015 21:00 10,2 C 10,1 C 80 % 1013,0 hPa 0,0 mm 0,0 km/h (0 Bft) SO 135 6,9 C 0,0 km/h (0 Bft)
05.10.2015 21:05 10,2 C 10,1 C 80 % 1013,0 hPa 0,0 mm 0,0 km/h (0 Bft) SO 135 6,9 C 0,0 km/h (0 Bft)
05.10.2015 21:10 10,2 C 10,2 C 80 % 1013,0 hPa 0,0 mm 0,0 km/h (0 Bft) SO 135 6,9 C 0,0 km/h (0 Bft)
05.10.2015 21:15 10,2 C 10,2 C 80 % 1012,9 hPa 0,0 mm 0,0 km/h (0 Bft) O-NO 67 6,9 C 0,0 km/h (0 Bft)
05.10.2015 21:20 10,2 C 10,3 C 80 % 1012,9 hPa 0,0 mm 0,0 km/h (0 Bft) W-NW 292 6,9 C 0,0 km/h (0 Bft)
05.10.2015 21:25 10,2 C 10,4 C 80 % 1012,9 hPa 0,0 mm 0,0 km/h (0 Bft) N-NW 337 6,9 C 0,0 km/h (0 Bft)
05.10.2015 21:30 10,3 C 10,4 C 80 % 1012,9 hPa 0,0 mm 0,0 km/h (0 Bft) N 360 7,0 C 0,0 km/h (0 Bft)
05.10.2015 21:35 10,3 C 10,4 C 80 % 1012,5 hPa 0,0 mm 0,0 km/h (0 Bft) N-NO 22 7,0 C 0,0 km/h (0 Bft)
05.10.2015 21:40 10,3 C 10,3 C 80 % 1012,5 hPa 0,0 mm 0,0 km/h (0 Bft) W 270 7,0 C 0,0 km/h (0 Bft)
05.10.2015 21:45 10,4 C 10,4 C 80 % 1012,5 hPa 0,0 mm 0,0 km/h (0 Bft) N-NO 22 7,1 C 0,0 km/h (0 Bft)
05.10.2015 21:50 10,6 C 10,6 C 80 % 1012,5 hPa 0,0 mm 0,0 km/h (0 Bft) W-NW 292 7,3 C 0,0 km/h (0 Bft)
05.10.2015 21:55 10,6 C 10,6 C 80 % 1012,5 hPa 0,0 mm 0,0 km/h (0 Bft) W 270 7,3 C 0,0 km/h (0 Bft)
05.10.2015 22:00 10,8 C 10,7 C 81 % 1012,5 hPa 0,0 mm 0,0 km/h (0 Bft) N-NO 22 7,7 C 0,0 km/h (0 Bft)
05.10.2015 22:05 10,7 C 10,7 C 80 % 1012,5 hPa 0,0 mm 0,0 km/h (0 Bft) N-NO 22 7,4 C 0,0 km/h (0 Bft)
05.10.2015 22:10 10,6 C 10,7 C 80 % 1012,5 hPa 0,0 mm 0,0 km/h (0 Bft) N-NO 22 7,3 C 0,0 km/h (0 Bft)
05.10.2015 22:15 10,6 C 10,7 C 80 % 1012,4 hPa 0,0 mm 0,0 km/h (0 Bft) N-NO 22 7,3 C 0,0 km/h (0 Bft)
05.10.2015 22:20 10,7 C 10,7 C 81 % 1012,4 hPa 0,0 mm 0,0 km/h (0 Bft) N-NO 22 7,6 C 0,0 km/h (0 Bft)
05.10.2015 22:25 10,7 C 10,7 C 81 % 1012,4 hPa 0,0 mm 0,0 km/h (0 Bft) N-NO 22 7,6 C 0,0 km/h (0 Bft)
05.10.2015 22:30 10,6 C 10,6 C 81 % 1012,4 hPa 0,0 mm 0,0 km/h (0 Bft) N-NO 22 7,5 C 0,0 km/h (0 Bft)
05.10.2015 22:35 10,6 C 10,6 C 81 % 1012,2 hPa 0,0 mm 0,0 km/h (0 Bft) W-NW 292 7,5 C 0,0 km/h (0 Bft)
05.10.2015 22:40 10,7 C 10,8 C 79 % 1012,2 hPa 0,0 mm 0,0 km/h (0 Bft) O 90 7,2 C 0,0 km/h (0 Bft)
05.10.2015 22:45 10,7 C 10,8 C 79 % 1012,2 hPa 0,0 mm 0,0 km/h (0 Bft) O-SO 112 7,2 C 0,0 km/h (0 Bft)
05.10.2015 22:50 10,8 C 10,9 C 79 % 1012,2 hPa 0,0 mm 0,0 km/h (0 Bft) O-SO 112 7,3 C 0,0 km/h (0 Bft)
05.10.2015 22:55 11,0 C 11,1 C 79 % 1011,9 hPa 0,0 mm 0,0 km/h (0 Bft) S-SO 157 7,5 C 0,0 km/h (0 Bft)
05.10.2015 23:00 11,3 C 11,4 C 79 % 1011,9 hPa 0,0 mm 0,0 km/h (0 Bft) O-SO 112 7,8 C 0,0 km/h (0 Bft)
05.10.2015 23:05 11,3 C 11,4 C 79 % 1011,9 hPa 0,0 mm 0,0 km/h (0 Bft) O 90 7,8 C 0,0 km/h (0 Bft)
05.10.2015 23:10 11,5 C 11,6 C 78 % 1011,9 hPa 0,0 mm 0,0 km/h (0 Bft) O-SO 112 7,8 C 0,0 km/h (0 Bft)
05.10.2015 23:15 11,7 C 11,7 C 78 % 1011,8 hPa 0,0 mm 0,0 km/h (0 Bft) S 180 8,0 C 0,0 km/h (0 Bft)
05.10.2015 23:20 11,5 C 11,6 C 78 % 1011,8 hPa 0,0 mm 0,0 km/h (0 Bft) NW 315 7,8 C 0,0 km/h (0 Bft)
05.10.2015 23:25 11,4 C 11,4 C 78 % 1011,8 hPa 0,0 mm 0,0 km/h (0 Bft) O 90 7,7 C 0,0 km/h (0 Bft)
05.10.2015 23:30 11,3 C 11,1 C 78 % 1011,8 hPa 0,0 mm 0,0 km/h (0 Bft) NW 315 7,6 C 0,0 km/h (0 Bft)
05.10.2015 23:35 11,2 C 10,9 C 79 % 1011,8 hPa 0,0 mm 0,3 km/h (0 Bft) O 90 7,7 C 0,0 km/h (0 Bft)
05.10.2015 23:40 11,1 C 10,8 C 79 % 1011,8 hPa 0,0 mm 0,3 km/h (0 Bft) W-SW 247 7,6 C 0,0 km/h (0 Bft)
05.10.2015 23:45 11,2 C 10,9 C 80 % 1011,8 hPa 0,0 mm 0,0 km/h (0 Bft) SO 135 7,9 C 0,0 km/h (0 Bft)
05.10.2015 23:50 11,1 C 10,8 C 80 % 1011,8 hPa 0,0 mm 0,0 km/h (0 Bft) NW 315 7,8 C 0,0 km/h (0 Bft)
05.10.2015 23:55 11,0 C 10,7 C 81 % 1011,8 hPa 0,0 mm 0,0 km/h (0 Bft) NO 45 7,9 C 0,0 km/h (0 Bft)
_ Min-Zeit 02:05 02:45 16:15 23:55 - 23:55 - - 02:15 23:55
Minimum _ 2,6 C 2,4 C 53 % 1011,8 hPa - 0,0 km/h (0 Bft) - - 1,1 C 0,0 km/h (0 Bft)
_ Max-Zeit 15:30 11:10 09:30 11:50 23:55 14:20 - - 11:05 14:20
Maximum _ 19,1 C 26,4 C 95 % 1020,3 hPa 0,0 mm 8,0 km/h
O-NO (2 Bft)
- - 11,0 C 19,4 km/h
O-NO (3 Bft)
Durchschnitt _ 9,7 C 11,6 C 78 % 1016,0 hPa #0,0 mm 0,9 km/h (0 Bft) O-NO - 5,7 C 1,3 km/h (1 Bft)